Location: Altleiningen
(49.5078°N, 8.0741°E)
Time: 04:19:06
(UTC+00:00)

Cosmos 1464 Rocket - Pass Details

Date: 14 June 2025
Orbit: 951 x 1001 km, 82.9° (Epoch: 12 July)

Event Time Altitude Azimuth Distance (km) Brightness Sun altitude
Rises 23:18:45 0° 347° (NNW) 3,712 8.7 -17.2°
Reaches altitude 10° 23:21:21 10° 342° (NNW) 2,752 7.5 -17.2°
Maximum altitude 23:27:23 50° 269° (W) 1,224 4.5 -17.2°
Enters shadow 23:31:00 24° 206° (SSW) 1,909 5.0 -17.2°
